When you browse on this site, cookies collect data to enhance your experience and personalize the content and advertising you see.
Visit our Privacy Policy to learn more. By continuing to use the site, you agree to this use of cookies and data.
  • In Czech Republic
  • List of Countries
  • For 7 days
  • Water Temperature
  • Weather Map
  • Weather Widgets
  • user-avatar
    Login

    Hourly Weather Nizhnee Kuchukovo

    Today, 27 May, Wednesday

    Time Temperature Precipitation Wind Pressure Humidity
    00:00 +13°C° 0 mm 6 mps 760 mmHg 76%
    01:00 +12°C° 0 mm 7 mps 760 mmHg 75%
    02:00 +13°C° 0.1 mm 5 mps 759 mmHg 78%
    03:00 +12°C° 0.1 mm 4 mps 759 mmHg 81%
    04:00 +12°C° 0 mm 4 mps 759 mmHg 84%
    05:00 +13°C° 1.2 mm 5 mps 758 mmHg 84%
    06:00 +13°C° 1.2 mm 6 mps 758 mmHg 83%
    07:00 +14°C° 1.2 mm 7 mps 757 mmHg 83%
    08:00 +15°C° 0.4 mm 8 mps 757 mmHg 80%
    09:00 +17°C° 0.4 mm 8 mps 756 mmHg 77%
    10:00 +18°C° 0.4 mm 9 mps 756 mmHg 74%
    11:00 +21°C° 0 mm 8 mps 755 mmHg 71%
    12:00 +22°C° 0 mm 8 mps 755 mmHg 68%
    13:00 +24°C° 0 mm 7 mps 754 mmHg 65%
    14:00 +26°C° 0 mm 7 mps 754 mmHg 66%
    15:00 +26°C° 0 mm 6 mps 754 mmHg 68%
    16:00 +27°C° 0 mm 5 mps 754 mmHg 69%
    17:00 +26°C° 0.2 mm 4 mps 754 mmHg 73%
    18:00 +26°C° 0.2 mm 3 mps 754 mmHg 77%
    19:00 +25°C° 0.2 mm 3 mps 754 mmHg 82%
    20:00 +22°C° 0.1 mm 3 mps 754 mmHg 85%
    21:00 +20°C° 0.1 mm 4 mps 754 mmHg 89%
    22:00 +17°C° 0.1 mm 5 mps 754 mmHg 92%
    23:00 +16°C° 0 mm 5 mps 755 mmHg 92%

    Tomorrow, 28 May, Thursday

    Time Temperature Precipitation Wind Pressure Humidity
    00:00 +15°C° 0 mm 5 mps 755 mmHg 92%
    01:00 +14°C° 0 mm 5 mps 755 mmHg 91%
    02:00 +14°C° 0 mm 5 mps 756 mmHg 90%
    03:00 +13°C° 0 mm 5 mps 756 mmHg 90%
    04:00 +13°C° 0 mm 5 mps 757 mmHg 89%
    05:00 +13°C° 0 mm 5 mps 757 mmHg 87%
    06:00 +13°C° 0 mm 5 mps 757 mmHg 86%
    07:00 +13°C° 0 mm 5 mps 758 mmHg 85%
    08:00 +14°C° 0 mm 5 mps 758 mmHg 80%
    09:00 +15°C° 0 mm 5 mps 758 mmHg 75%
    10:00 +16°C° 0 mm 5 mps 758 mmHg 70%
    11:00 +17°C° 0 mm 4 mps 758 mmHg 67%
    12:00 +18°C° 0 mm 4 mps 758 mmHg 64%
    13:00 +19°C° 0 mm 4 mps 758 mmHg 60%
    14:00 +19°C° 0 mm 4 mps 759 mmHg 59%
    15:00 +20°C° 0 mm 4 mps 759 mmHg 58%
    16:00 +20°C° 0 mm 4 mps 759 mmHg 57%
    17:00 +20°C° 0 mm 4 mps 759 mmHg 61%
    18:00 +19°C° 0 mm 3 mps 759 mmHg 65%
    19:00 +19°C° 0 mm 2 mps 759 mmHg 69%
    20:00 +17°C° 0 mm 2 mps 759 mmHg 74%
    21:00 +16°C° 0 mm 2 mps 759 mmHg 78%
    22:00 +14°C° 0 mm 2 mps 759 mmHg 82%
    23:00 +14°C° 0 mm 2 mps 760 mmHg 84%

    Day after tomorrow, 29 May, Friday

    Time Temperature Precipitation Wind Pressure Humidity
    00:00 +13°C° 0 mm 2 mps 760 mmHg 86%
    01:00 +13°C° 0 mm 2 mps 760 mmHg 88%
    02:00 +12°C° 0 mm 2 mps 760 mmHg 88%
    03:00 +12°C° 0 mm 1 mps 760 mmHg 89%
    04:00 +12°C° 0 mm 1 mps 760 mmHg 89%
    05:00 +13°C° 0 mm 1 mps 760 mmHg 85%
    06:00 +14°C° 0 mm 1 mps 760 mmHg 80%
    07:00 +16°C° 0 mm 1 mps 760 mmHg 75%
    08:00 +18°C° 0 mm 1 mps 761 mmHg 68%
    09:00 +20°C° 0 mm 1 mps 761 mmHg 62%
    10:00 +21°C° 0 mm 1 mps 761 mmHg 55%
    11:00 +22°C° 0 mm 1 mps 760 mmHg 53%
    12:00 +23°C° 0 mm 2 mps 760 mmHg 51%
    13:00 +24°C° 0 mm 2 mps 760 mmHg 49%
    14:00 +24°C° 0 mm 2 mps 760 mmHg 49%
    15:00 +24°C° 0 mm 2 mps 759 mmHg 49%
    16:00 +24°C° 0 mm 2 mps 759 mmHg 49%
    17:00 +24°C° 0 mm 2 mps 759 mmHg 53%
    18:00 +23°C° 0 mm 1 mps 758 mmHg 57%
    19:00 +23°C° 0 mm 1 mps 758 mmHg 61%
    20:00 +21°C° 0 mm 1 mps 758 mmHg 66%
    21:00 +19°C° 0 mm 1 mps 758 mmHg 71%
    22:00 +16°C° 0 mm 1 mps 758 mmHg 75%
    23:00 +16°C° 0 mm 1 mps 758 mmHg 77%

    30 May, Saturday

    Time Temperature Precipitation Wind Pressure Humidity
    00:00 +14°C° 0 mm 0 mps 758 mmHg 79%
    01:00 +14°C° 0 mm 0 mps 758 mmHg 81%
    02:00 +14°C° 0 mm 0 mps 758 mmHg 81%
    03:00 +13°C° 0 mm 0 mps 757 mmHg 82%
    04:00 +14°C° 0 mm 1 mps 757 mmHg 82%
    05:00 +14°C° 0 mm 0 mps 757 mmHg 78%
    06:00 +16°C° 0 mm 0 mps 757 mmHg 75%
    07:00 +17°C° 0 mm 0 mps 757 mmHg 71%
    08:00 +19°C° 0 mm 0 mps 757 mmHg 67%
    09:00 +22°C° 0 mm 1 mps 757 mmHg 63%
    10:00 +23°C° 0 mm 1 mps 757 mmHg 58%
    11:00 +24°C° 0 mm 1 mps 757 mmHg 56%
    12:00 +25°C° 0 mm 1 mps 756 mmHg 53%
    13:00 +26°C° 0 mm 1 mps 756 mmHg 50%
    14:00 +26°C° 0 mm 1 mps 756 mmHg 51%
    15:00 +26°C° 0 mm 1 mps 755 mmHg 52%
    16:00 +26°C° 0 mm 2 mps 755 mmHg 53%
    17:00 +25°C° 0 mm 2 mps 755 mmHg 59%
    18:00 +24°C° 0 mm 2 mps 754 mmHg 64%
    19:00 +22°C° 0 mm 3 mps 754 mmHg 70%
    20:00 +20°C° 0 mm 3 mps 754 mmHg 74%
    21:00 +19°C° 0 mm 3 mps 754 mmHg 77%
    22:00 +17°C° 0 mm 4 mps 754 mmHg 81%
    23:00 +16°C° 0 mm 3 mps 754 mmHg 81%

    31 May, Sunday

    Time Temperature Precipitation Wind Pressure Humidity
    00:00 +14°C° 0 mm 3 mps 753 mmHg 81%
    01:00 +13°C° 0 mm 3 mps 753 mmHg 81%
    02:00 +12°C° 0 mm 3 mps 753 mmHg 84%
    03:00 +12°C° 0 mm 3 mps 753 mmHg 87%
    04:00 +11°C° 0 mm 3 mps 752 mmHg 90%
    05:00 +12°C° 0 mm 4 mps 752 mmHg 85%
    06:00 +13°C° 0 mm 4 mps 752 mmHg 81%
    07:00 +14°C° 0 mm 5 mps 751 mmHg 77%
    08:00 +15°C° 0 mm 5 mps 751 mmHg 71%
    09:00 +16°C° 0 mm 5 mps 750 mmHg 65%
    10:00 +17°C° 0 mm 6 mps 750 mmHg 60%
    11:00 +19°C° 0 mm 6 mps 750 mmHg 58%
    12:00 +19°C° 0 mm 5 mps 749 mmHg 57%
    13:00 +19°C° 0 mm 5 mps 749 mmHg 55%
    14:00 +19°C° 0 mm 6 mps 748 mmHg 56%
    15:00 +19°C° 0 mm 6 mps 748 mmHg 57%
    16:00 +18°C° 0 mm 7 mps 747 mmHg 58%
    17:00 +16°C° 0.1 mm 6 mps 747 mmHg 61%
    18:00 +15°C° 0.1 mm 6 mps 746 mmHg 65%
    19:00 +14°C° 0.1 mm 5 mps 746 mmHg 69%
    20:00 +13°C° 0.2 mm 5 mps 745 mmHg 71%
    21:00 +13°C° 0.2 mm 5 mps 745 mmHg 72%
    22:00 +12°C° 0.2 mm 5 mps 745 mmHg 74%
    23:00 +12°C° 0 mm 5 mps 745 mmHg 74%

    1 June, Monday

    Time Temperature Precipitation Wind Pressure Humidity
    00:00 +10°C° 0 mm 5 mps 745 mmHg 73%
    01:00 +10°C° 0 mm 5 mps 745 mmHg 73%
    02:00 +9°C° 0 mm 5 mps 745 mmHg 72%
    03:00 +8°C° 0 mm 5 mps 745 mmHg 72%
    04:00 +8°C° 0 mm 6 mps 745 mmHg 71%
    05:00 +8°C° 0 mm 6 mps 746 mmHg 70%
    06:00 +8°C° 0 mm 6 mps 746 mmHg 69%
    07:00 +8°C° 0 mm 6 mps 747 mmHg 68%
    08:00 +9°C° 0 mm 6 mps 747 mmHg 65%
    09:00 +10°C° 0 mm 6 mps 747 mmHg 62%
    10:00 +11°C° 0 mm 6 mps 747 mmHg 59%
    11:00 +13°C° 0 mm 5 mps 748 mmHg 58%
    12:00 +13°C° 0 mm 5 mps 748 mmHg 57%
    13:00 +14°C° 0 mm 5 mps 748 mmHg 56%
    14:00 +14°C° 0.1 mm 5 mps 748 mmHg 55%
    15:00 +14°C° 0.1 mm 5 mps 749 mmHg 55%
    16:00 +14°C° 0.1 mm 5 mps 749 mmHg 54%
    17:00 +13°C° 0 mm 5 mps 749 mmHg 57%
    18:00 +13°C° 0 mm 4 mps 750 mmHg 60%
    19:00 +12°C° 0 mm 4 mps 750 mmHg 63%
    20:00 +11°C° 0 mm 3 mps 750 mmHg 67%
    21:00 +9°C° 0 mm 3 mps 751 mmHg 71%
    22:00 +7°C° 0 mm 2 mps 751 mmHg 75%
    23:00 +7°C° 0 mm 2 mps 751 mmHg 77%
    Show more